Weather History for PPIZ - February, 2013

Change the Weather History Date:

Thursday, February 28, 2013

  Actual Average Record
Temperature  
Mean Temperature -16 °F -  
Max Temperature -13 °F -6 °F 30 °F (2014)
Min Temperature -20 °F -16 °F -44 °F (2012)
Degree Days  
Heating Degree Days 82    
Moisture  
Dew Point -22 °F    
Average Humidity 76    
Maximum Humidity 84    
Minimum Humidity 70    
Precipitation  
Precipitation 0.00 in - - ()
Sea Level Pressure  
Sea Level Pressure 29.66 in    
Wind  
Wind Speed 31 mph (ENE)    
Max Wind Speed 43 mph    
Max Gust Speed 50 mph    
Averages and records for this station are not official NWS values.
T = Trace of Precipitation, MM = Missing Value Source: NWS Daily Summary

Daily Weather History Graph

Daily Weather History Graph

Search for Another Location

Airport or City:

Trip Planner

Search our weather history database for the weather conditions in past years. The results will help you decide how hot, cold, wet, or windy it might be!

Date:

Astronomy

Feb. 28, 2013 Rise Set
Actual Time 9:19 AM AKST 6:50 PM AKST
Civil Twilight 8:18 AM AKST 7:52 PM AKST
Nautical Twilight 7:09 AM AKST 9:01 PM AKST
Astronomical Twilight 5:55 AM AKST 10:16 PM AKST
Moon No Moon Rise 8:29 AM AKST
Length of Visible Light 11h 33m
Length of Day
9h 30m
Waning Gibbous, 90% of the Moon is Illuminated
Feb 28
Waning Gibbous
Mar 4
Last Quarter
Mar 11
New
Mar 19
First Quarter
Mar 27
Full

Hourly Weather History & Observations

Time (AKST) Temp. Windchill Dew Point Humidity Pressure Visibility Wind Dir Wind Speed Gust Speed Precip Events Conditions
12:05 AM -20.2 °F -51.8 °F -25.6 °F 76% 29.71 in 0.5 mi NE 26.5 mph - 0.00 in Snow Snow
12:39 AM -20.2 °F -52.8 °F -25.6 °F 76% 29.69 in 0.5 mi NE 28.8 mph - 0.00 in Snow Snow
12:56 AM -18.9 °F -50.1 °F -24.9 °F 74% 29.71 in 0.5 mi ENE 26.5 mph - 0.00 in Snow Snow
1:56 AM -17.9 °F -48.6 °F -22.9 °F 78% 29.71 in 0.5 mi ENE 26.5 mph - 0.00 in Snow Snow
2:32 AM -16.6 °F -49.7 °F -23.8 °F 70% 29.66 in 0.2 mi ENE 33.4 mph 38.0 mph 0.00 in Snow Heavy Snow
2:43 AM -16.6 °F -50.1 °F -23.8 °F 70% 29.67 in 0.5 mi ENE 34.5 mph - 0.00 in Snow Snow
2:56 AM -16.6 °F -47.9 °F -23.8 °F 70% 29.68 in 0.5 mi ENE 28.8 mph - N/A Snow Snow
3:56 AM -17.0 °F -48.4 °F -22.9 °F 74% 29.67 in 0.2 mi ENE 28.8 mph - 0.00 in Snow Heavy Snow
4:14 AM -18.4 °F -48.8 °F -23.8 °F 76% 29.66 in 0.5 mi ENE 25.3 mph 33.4 mph 0.00 in Snow Snow
4:56 AM -17.9 °F -49.6 °F -24.0 °F 74% 29.66 in 0.5 mi ENE 28.8 mph 34.5 mph 0.00 in Snow Snow
5:12 AM -16.6 °F -50.5 °F -23.8 °F 70% 29.64 in 0.2 mi ENE 35.7 mph 40.3 mph 0.00 in Snow Heavy Snow
5:27 AM -16.6 °F -48.8 °F -23.8 °F 70% 29.64 in 0.5 mi ENE 31.1 mph 40.3 mph 0.00 in Snow Snow
5:46 AM -16.6 °F -50.1 °F -23.8 °F 70% 29.63 in 0.2 mi ENE 34.5 mph 42.6 mph 0.00 in Snow Heavy Snow
5:56 AM -16.6 °F -51.2 °F -23.8 °F 70% 29.62 in 0.2 mi ENE 38.0 mph 47.2 mph N/A Snow Heavy Snow
6:09 AM -16.6 °F -49.7 °F -22.0 °F 76% 29.64 in 0.5 mi ENE 33.4 mph 40.3 mph 0.00 in Snow Snow
6:37 AM -16.6 °F -47.9 °F -22.0 °F 76% 29.64 in 0.2 mi ENE 28.8 mph 40.3 mph 0.00 in Snow Heavy Snow
6:56 AM -15.9 °F -47.4 °F -22.0 °F 74% 29.66 in 0.2 mi East 29.9 mph 35.7 mph 0.00 in Snow Heavy Snow
7:15 AM -16.6 °F -49.7 °F -22.0 °F 76% 29.63 in 0.5 mi ENE 33.4 mph 39.1 mph 0.00 in Snow Snow
7:23 AM -16.6 °F -47.9 °F -22.0 °F 76% 29.64 in 0.2 mi East 28.8 mph 39.1 mph 0.00 in Snow Heavy Snow
7:56 AM -17.0 °F -51.4 °F -22.9 °F 74% 29.63 in 0.2 mi ENE 36.8 mph 46.0 mph 0.00 in Snow Heavy Snow
8:56 AM -18.4 °F -52.1 °F -23.8 °F 76% 29.62 in 0.2 mi ENE 33.4 mph 41.4 mph N/A Snow Heavy Snow
9:56 AM -18.9 °F -54.9 °F -24.9 °F 74% 29.61 in 0.2 mi ENE 39.1 mph 49.5 mph 0.00 in Snow Heavy Snow
10:56 AM -19.8 °F -57.2 °F -26.0 °F 73% 29.62 in 0.2 mi ENE 42.6 mph 49.5 mph 0.00 in Snow Heavy Snow
11:56 AM -17.0 °F -52.8 °F -22.9 °F 74% 29.63 in - East 41.4 mph 48.3 mph 0.00 in Snow Light Snow
12:56 PM -15.0 °F -49.0 °F -20.9 °F 75% 29.65 in - East 38.0 mph 47.2 mph 0.00 in Snow Light Snow
1:47 PM -14.8 °F -46.8 °F -18.4 °F 84% 29.63 in - East 32.2 mph 46.0 mph 0.00 in Snow Light Snow
1:56 PM -13.9 °F -46.0 °F -18.9 °F 78% 29.65 in - East 33.4 mph 41.4 mph 0.00 in Snow Light Snow
2:56 PM -13.0 °F -43.9 °F -17.9 °F 79% 29.66 in - East 31.1 mph - 0.00 in Snow Light Snow
3:56 PM -13.0 °F -45.5 °F -17.9 °F 79% 29.65 in - East 35.7 mph 42.6 mph 0.00 in Snow Light Snow
4:56 PM -13.0 °F -45.1 °F -17.9 °F 79% 29.66 in - East 34.5 mph 40.3 mph 0.00 in Snow Light Snow
5:56 PM -13.0 °F -45.9 °F -17.9 °F 79% 29.66 in - East 36.8 mph 41.4 mph 0.00 in Snow Light Snow
6:56 PM -13.0 °F -45.5 °F -17.9 °F 79% 29.68 in - East 35.7 mph 40.3 mph 0.00 in Snow Light Snow
7:56 PM -13.0 °F -45.5 °F -17.9 °F 79% 29.69 in - East 35.7 mph - 0.00 in Snow Light Snow
8:56 PM -13.0 °F -45.1 °F -17.9 °F 79% 29.70 in - East 34.5 mph 40.3 mph 0.00 in   Mostly Cloudy
9:56 PM -13.0 °F -44.7 °F -17.9 °F 79% 29.71 in - East 33.4 mph - 0.00 in Snow Light Snow
10:56 PM -13.0 °F -43.0 °F -17.9 °F 79% 29.73 in - East 28.8 mph - 0.00 in   Clear
11:05 PM -13.0 °F -43.0 °F -18.4 °F 77% 29.71 in - East 28.8 mph - 0.00 in Snow Light Snow
11:15 PM -13.0 °F -43.0 °F -18.4 °F 77% 29.72 in - East 28.8 mph - 0.00 in Snow Light Snow
11:56 PM -13.0 °F -43.5 °F -18.4 °F 77% 29.73 in - East 29.9 mph - N/A   Clear